Wind_Speed
14 15 17 19 22 24 28 32 37 42 41 38 33 20 22 36 52 67 77 84 90 91 89 85 81 77 72 69 67 66 67 68 62 58 52 52 51 49 52 56 55 53 51 50 50
16 17 18 20 23 25 28 33 37 41 44 41 38 24 15 28 43 59 70 80 88 89 90 86 82 79 74 74 67 65 65 63 61 59 59 59 58 56 54 54 57 57 54 55 55
16 18 19 21 24 26 29 32 37 41 45 42 40 30 13 19 34 51 65 76 83 88 89 87 84 80 75 74 70 69 65 63 61 59 58 62 62 61 60 59 57 59 59 59 60
16 17 20 21 24 27 29 31 35 39 43 42 41 36 18 8 25 42 57 70 79 86 88 87 85 80 77 73 72 72 68 66 58 59 60 62 61 63 62 63 60 60 62 64 64
17 18 19 22 24 26 28 30 32 36 39 43 41 39 26 6 14 31 50 66 75 81 84 84 83 81 77 74 73 70 64 68 62 58 64 64 62 62 65 61 65 65 65 67 68
20 20 20 21 23 25 26 28 30 32 36 39 39 38 33 17 2 22 37 53 67 73 79 80 80 79 76 75 75 71 70 70 66 68 66 63 60 59 57 60 61 65 67 70 70
22 22 22 22 23 23 24 26 28 29 31 35 37 35 33 25 8 13 32 47 60 64 72 73 76 76 76 75 74 73 73 71 67 67 66 65 64 64 59 62 64 64 64 65 66
23 23 23 23 23 22 23 24 25 26 27 29 31 31 29 26 17 10 24 39 52 56 64 65 70 72 73 73 73 73 72 72 67 69 67 69 70 66 67 68 70 70 71 71 70
23 24 24 23 23 22 22 22 23 23 23 24 24 26 23 23 18 13 17 29 41 49 56 57 62 66 68 69 70 71 70 71 69 71 69 72 73 69 72 73 75 77 76 75 75
25 26 26 25 24 24 24 23 22 21 21 21 19 18 18 14 14 10 14 21 31 39 44 47 53 60 64 66 67 67 70 73 74 72 73 75 76 73 73 75 77 78 78 78 78
28 28 27 26 25 26 26 25 23 22 20 18 17 15 12 9 3 6 10 19 27 31 32 37 44 54 59 64 66 68 70 72 73 72 71 71 71 74 73 77 78 80 82 82 82
30 30 29 28 28 29 29 28 26 23 22 20 17 15 14 10 7 6 13 19 24 28 32 36 39 45 51 56 62 65 67 70 71 71 73 74 75 75 74 76 79 82 84 85 86
31 30 31 32 33 33 31 30 29 27 25 23 22 20 18 17 15 15 16 19 26 30 33 35 38 42 46 51 55 59 63 65 67 66 69 67 71 72 75 78 82 83 85 87 88
31 33 36 37 36 35 34 32 31 30 29 28 27 26 25 22 21 21 23 25 27 30 34 40 43 45 47 48 51 54 57 59 62 64 68 67 69 70 74 77 80 83 85 87 88
35 36 37 37 36 36 37 37 35 35 34 32 31 29 29 28 27 28 28 31 33 35 39 41 43 46 50 54 57 58 61 62 64 65 67 70 70 75 74 81 82 84 85 87 88
40 40 38 38 39 39 40 40 39 39 39 37 35 33 32 30 31 32 34 36 38 39 41 44 48 50 52 54 56 59 62 64 66 68 69 70 72 76 76 79 82 85 88 89 90
44 42 41 41 42 42 42 42 42 40 38 37 37 36 35 34 33 34 35 37 40 42 45 47 51 54 57 59 62 64 66 68 69 71 75 72 74 79 80 83 85 87 89 92 93
46 44 43 43 43 43 42 40 39 35 34 33 34 34 34 35 36 36 37 38 41 43 46 49 52 55 59 62 64 68 70 72 74 77 79 78 79 85 86 88 90 93 95 97 98
49 46 44 43 42 39 36 33 31 30 30 30 30 29 29 32 34 34 35 36 39 41 45 48 51 54 57 60 64 67 71 74 77 78 79 81 82 86 88 91 94 97 99 100 101
41 40 38 35 31 29 28 27 27 28 28 30 32 33 33 34 34 36 37 39 40 42 45 48 50 52 55 58 60 63 66 70 74 75 77 76 78 84 85 89 93 96 99 100 101
27 27 28 27 28 29 31 31 33 34 35 37 39 39 40 40 41 42 43 44 45 47 49 52 54 57 59 62 64 67 71 73 75 77 76 76 79 84 87 94 92 97 95 100 102
31 32 34 35 35 35 35 36 37 37 37 39 40 41 42 41 41 43 43 44 45 45 49 53 55 59 63 64 66 70 74 77 79 80 81 85 79 89 94 97 98 99 102 107 108
38 38 39 39 39 40 41 41 40 39 39 40 41 42 44 45 44 41 40 40 40 38 38 41 43 46 50 54 58 62 66 72 75 76 79 85 79 89 95 100 102 103 105 109 113
40 38 40 43 42 44 44 42 42 39 38 38 36 34 35 32 29 28 26 28 31 33 35 37 40 41 45 49 49 52 58 61 63 64 68 72 73 78 84 88 93 96 99 101 108
38 39 41 43 45 43 40 36 34 33 26 23 24 22 21 23 23 26 29 31 32 35 38 40 43 45 50 51 52 56 60 62 65 68 71 69 80 81 83 88 91 95 97 97 97
39 38 37 34 36 36 33 30 25 26 25 24 23 24 24 25 25 28 30 31 35 37 39 41 42 46 51 54 56 59 62 63 68 72 74 75 75 82 78 80 80 79 83 85 86
38 34 26 23 20 16 17 19 20 22 23 22 23 24 26 28 29 31 34 36 38 40 41 44 46 46 51 53 55 57 62 66 70 73 74 72 74 71 67 66 65 66 66 67 68
Wind_Direction
329 329 331 331 332 335 338 340 342 348 350 351 342 312 256 232 222 219 216 213 213 212 213 213 213 214 216 219 222 226 228 232 231 231 223 232 236 235 234 230 232 232 236 239 240
327 327 331 334 334 338 342 344 345 350 355 357 355 341 280 234 221 217 213 211 210 211 211 212 213 214 214 219 221 225 227 231 233 234 235 234 237 240 237 238 236 237 238 241 244
325 327 329 335 337 339 343 347 349 352 357 1 3 357 319 244 220 213 211 208 209 209 210 211 211 213 214 216 218 224 226 229 233 234 237 237 236 239 239 240 240 241 242 243 245
325 326 330 334 339 340 344 348 351 354 359 3 7 8 358 267 218 210 208 206 206 207 209 209 211 212 213 216 219 222 225 228 232 237 236 237 237 241 242 240 242 244 247 248 249
322 326 330 334 337 340 342 348 351 355 360 4 10 13 13 5 219 205 206 202 203 205 208 209 211 212 214 215 219 223 222 229 228 227 237 238 239 240 242 242 242 243 246 248 250
321 323 327 332 335 338 342 345 351 355 360 5 11 16 21 22 146 196 194 202 200 203 206 208 210 212 214 216 221 223 226 230 230 234 240 244 245 246 243 247 249 249 251 250 251
316 319 322 327 332 335 339 343 347 353 358 4 10 19 22 32 51 175 186 192 196 201 205 208 209 213 214 218 221 226 228 232 233 237 242 245 248 249 249 251 253 254 255 255 255
313 316 318 323 329 332 335 338 342 347 354 1 7 17 30 34 51 130 174 185 191 198 204 207 210 213 216 219 223 227 231 233 235 238 242 247 249 251 252 253 254 254 254 254 255
309 312 314 317 320 325 330 333 336 339 345 353 3 11 24 39 54 95 157 179 189 196 202 207 212 215 218 222 226 229 232 235 235 238 241 245 248 247 251 252 254 255 256 256 258
306 308 311 313 315 318 322 324 328 330 334 341 348 2 15 31 55 89 142 171 185 194 203 211 216 219 222 224 228 232 234 235 237 240 242 244 249 251 253 256 257 259 260 261 262
300 304 307 308 311 316 317 317 320 321 321 325 331 336 345 1 43 122 154 176 185 195 207 216 222 224 226 229 231 234 238 239 241 241 245 246 249 251 251 252 255 258 259 261 262
296 300 302 303 306 309 309 307 307 310 311 310 313 314 312 303 284 233 202 195 202 211 216 221 223 227 230 233 235 237 240 241 244 246 248 249 250 252 253 255 256 256 258 259 261
294 296 299 300 301 303 302 302 300 297 296 296 296 297 298 289 275 253 238 226 221 220 224 229 233 235 236 238 239 242 244 246 248 250 252 254 254 254 255 256 257 257 258 259 260
287 291 294 297 298 298 297 298 296 295 293 289 286 285 285 281 274 268 257 243 235 232 233 234 235 236 238 241 243 245 247 247 247 247 250 250 253 253 256 256 257 258 259 260 260
283 287 290 292 293 292 292 293 292 290 288 286 285 281 277 273 268 263 260 256 252 245 240 239 239 241 242 243 245 244 246 247 249 250 252 252 253 255 256 260 259 260 260 262 263
282 287 288 288 288 289 290 291 289 287 285 282 281 281 278 275 270 264 259 257 256 255 254 251 249 247 245 246 246 247 247 249 250 252 252 253 254 256 253 257 258 260 261 262 263
281 283 283 284 286 288 289 290 287 286 284 281 279 277 276 275 271 267 264 260 257 256 257 256 256 255 254 253 252 251 250 251 251 252 255 255 257 258 258 258 261 261 262 263 263
278 281 283 284 286 286 286 285 284 284 282 280 279 277 275 274 272 270 267 264 261 260 260 259 257 257 258 259 259 259 259 258 257 258 259 259 261 261 262 264 264 265 265 266 266
279 282 282 283 285 284 281 280 282 283 282 282 281 279 277 275 273 271 269 267 266 265 265 264 263 262 262 261 261 261 262 262 262 263 264 265 266 265 266 266 267 268 269 269 269
279 280 280 279 280 280 281 281 282 283 283 283 284 284 282 278 275 273 273 272 271 269 268 267 267 267 268 267 266 265 265 264 265 264 264 264 265 265 267 266 267 268 268 269 270
277 276 277 276 279 282 281 281 280 279 281 282 282 282 280 279 277 274 272 271 271 271 271 271 270 269 267 266 266 266 268 268 267 266 266 265 267 268 267 266 266 268 270 269 269
276 277 278 279 279 279 278 278 278 279 281 281 280 280 279 280 281 278 276 276 276 275 277 276 276 274 271 269 268 268 266 266 265 266 268 268 267 268 268 269 268 268 269 270 271
276 278 280 282 283 281 279 279 281 284 284 284 284 282 279 280 279 278 278 278 279 278 278 279 277 276 277 275 273 270 269 269 270 270 270 269 267 268 266 267 269 269 269 270 269
277 280 283 282 279 281 281 281 282 283 286 288 289 287 283 280 280 279 276 277 277 277 280 282 282 283 282 284 284 283 281 280 280 280 277 281 274 273 273 272 271 270 268 267 268
278 279 282 283 283 280 278 279 280 283 283 286 290 290 284 287 290 290 287 287 286 285 284 285 286 287 286 285 285 285 283 284 283 282 280 275 278 275 274 276 276 276 276 278 277
278 282 285 281 278 276 273 277 271 277 283 287 288 290 292 292 290 289 288 287 285 284 284 284 283 284 282 282 281 283 285 285 284 283 282 281 279 282 282 280 278 278 276 276 277
277 278 273 284 279 267 256 262 268 275 279 285 290 294 295 296 297 297 297 297 295 294 291 290 290 287 288 289 290 290 293 293 292 291 290 292 293 290 290 287 284 283 282 281 282
Height
10831 10828 10825 10821 10816 10811 10804 10796 10786 10775 10762 10749 10736 10726 10720 10720 10725 10734 10749 10769 10785 10803 10818 10832 10844 10855 10866 10874 10881 10888 10895 10901 10908 10916 10924 10927 10930 10933 10934 10937 10938 10940 10944 10947 10950
10828 10824 10821 10816 10812 10806 10799 10791 10781 10770 10757 10744 10731 10719 10713 10712 10716 10724 10738 10756 10773 10790 10806 10821 10835 10846 10857 10863 10875 10880 10886 10893 10900 10909 10914 10917 10921 10924 10926 10928 10930 10934 10938 10939 10940
10824 10821 10817 10812 10807 10801 10794 10787 10778 10767 10754 10742 10730 10717 10709 10705 10708 10716 10728 10745 10764 10780 10797 10812 10824 10836 10848 10856 10866 10871 10878 10885 10892 10897 10904 10907 10911 10916 10918 10919 10925 10926 10928 10930 10930
10820 10817 10813 10809 10803 10797 10791 10784 10776 10766 10755 10742 10730 10718 10708 10703 10704 10711 10723 10739 10755 10771 10786 10802 10816 10829 10840 10850 10857 10863 10872 10878 10886 10890 10894 10897 10903 10905 10909 10913 10918 10917 10917 10917 10918
10817 10813 10810 10806 10801 10795 10789 10783 10775 10766 10756 10744 10732 10721 10711 10706 10705 10709 10718 10730 10747 10764 10780 10797 10811 10822 10834 10844 10847 10858 10866 10868 10878 10880 10883 10889 10893 10897 10898 10906 10905 10906 10904 10905 10906
10813 10810 10806 10802 10798 10793 10787 10781 10775 10768 10759 10749 10737 10726 10717 10710 10709 10712 10719 10734 10748 10763 10777 10792 10807 10818 10828 10836 10842 10851 10856 10862 10869 10871 10874 10879 10884 10885 10892 10894 10895 10893 10893 10895 10897
10809 10806 10802 10799 10795 10791 10786 10780 10775 10769 10762 10754 10745 10735 10726 10720 10716 10718 10722 10734 10749 10764 10778 10791 10804 10815 10823 10831 10839 10842 10847 10853 10860 10862 10866 10870 10872 10875 10884 10882 10880 10881 10881 10883 10885
10804 10802 10799 10796 10792 10789 10785 10780 10775 10770 10765 10759 10752 10744 10738 10731 10727 10728 10732 10741 10753 10766 10778 10791 10801 10811 10819 10825 10830 10834 10838 10844 10855 10855 10861 10860 10861 10869 10869 10868 10867 10868 10870 10869 10870
10800 10798 10795 10792 10789 10786 10783 10779 10775 10772 10767 10763 10759 10753 10747 10743 10741 10741 10745 10751 10760 10769 10780 10790 10799 10807 10813 10818 10823 10827 10831 10836 10846 10847 10851 10850 10849 10858 10855 10854 10853 10851 10852 10855 10855
10796 10793 10791 10788 10785 10783 10780 10777 10774 10771 10768 10765 10762 10760 10756 10753 10752 10753 10755 10760 10767 10775 10783 10791 10797 10802 10806 10810 10815 10820 10821 10824 10829 10836 10838 10839 10839 10844 10845 10842 10839 10838 10838 10838 10839
10791 10789 10786 10784 10782 10780 10777 10774 10773 10770 10768 10766 10764 10762 10762 10761 10760 10761 10763 10767 10771 10777 10783 10788 10791 10796 10800 10802 10806 10808 10809 10813 10817 10824 10825 10827 10830 10827 10832 10827 10825 10823 10822 10822 10822
10785 10783 10781 10779 10777 10776 10773 10771 10769 10768 10766 10765 10764 10763 10762 10763 10764 10764 10766 10769 10773 10777 10779 10782 10785 10788 10791 10793 10796 10797 10799 10802 10806 10810 10812 10812 10815 10814 10815 10812 10810 10808 10805 10805 10804
10779 10776 10774 10773 10771 10769 10768 10765 10764 10763 10763 10762 10762 10761 10761 10761 10763 10764 10766 10767 10769 10771 10774 10776 10778 10780 10782 10784 10786 10788 10790 10793 10795 10797 10795 10799 10797 10801 10798 10795 10791 10789 10788 10787 10787
10773 10770 10768 10766 10765 10762 10760 10759 10758 10757 10757 10757 10757 10757 10757 10758 10759 10760 10761 10763 10765 10766 10766 10767 10769 10770 10772 10774 10775 10776 10778 10780 10781 10782 10780 10782 10782 10782 10778 10775 10772 10769 10767 10767 10767
10765 10764 10761 10759 10757 10756 10753 10752 10751 10750 10750 10749 10749 10749 10750 10751 10752 10753 10754 10755 10756 10758 10758 10759 10759 10760 10761 10762 10761 10764 10763 10763 10764 10764 10766 10763 10768 10759 10763 10753 10751 10749 10748 10747 10747
10757 10756 10754 10751 10749 10747 10745 10744 10743 10742 10741 10741 10741 10741 10742 10743 10743 10744 10745 10745 10746 10747 10748 10749 10749 10750 10750 10749 10749 10749 10749 10748 10748 10748 10747 10749 10748 10743 10748 10734 10732 10732 10729 10727 10726
10747 10746 10744 10742 10740 10738 10736 10735 10734 10733 10732 10732 10732 10732 10732 10732 10733 10734 10733 10734 10735 10736 10736 10737 10736 10736 10735 10735 10734 10734 10734 10733 10734 10733 10728 10736 10734 10725 10725 10720 10716 10715 10711 10707 10706
10734 10735 10734 10732 10730 10728 10727 10725 10724 10723 10722 10722 10722 10721 10723 10722 10723 10722 10722 10723 10724 10724 10723 10722 10722 10722 10721 10720 10720 10719 10718 10718 10718 10715 10714 10718 10717 10704 10702 10700 10696 10691 10688 10686 10685
10722 10723 10722 10721 10720 10718 10717 10715 10715 10714 10714 10713 10713 10713 10713 10712 10712 10712 10711 10712 10711 10711 10709 10708 10708 10706 10705 10705 10704 10704 10701 10698 10697 10697 10699 10696 10697 10688 10685 10678 10673 10668 10665 10662 10661
10711 10711 10710 10710 10710 10710 10708 10708 10707 10706 10706 10704 10704 10703 10703 10703 10703 10702 10701 10700 10699 10699 10697 10695 10694 10692 10690 10689 10687 10685 10682 10678 10675 10679 10677 10680 10677 10663 10662 10656 10649 10644 10640 10639 10637
10704 10703 10702 10702 10702 10702 10701 10701 10700 10699 10698 10697 10695 10694 10692 10691 10691 10690 10689 10688 10687 10685 10683 10680 10677 10676 10675 10673 10671 10667 10660 10658 10655 10654 10657 10661 10655 10645 10639 10625 10630 10621 10624 10612 10607
10697 10696 10695 10694 10694 10693 10692 10691 10690 10690 10689 10687 10685 10683 10681 10680 10679 10677 10676 10674 10673 10671 10668 10664 10660 10657 10654 10654 10651 10648 10643 10638 10636 10636 10637 10629 10642 10618 10611 10606 10603 10600 10594 10582 10579
10688 10687 10686 10685 10684 10682 10681 10680 10679 10679 10678 10677 10674 10671 10668 10667 10666 10665 10664 10662 10660 10658 10655 10650 10646 10642 10635 10632 10630 10626 10620 10614 10615 10616 10611 10605 10615 10593 10588 10581 10578 10573 10566 10557 10548
10678 10677 10676 10674 10672 10671 10670 10670 10669 10668 10666 10664 10662 10659 10657 10655 10654 10653 10652 10651 10649 10646 10643 10639 10634 10631 10626 10618 10615 10609 10600 10597 10595 10593 10588 10578 10581 10571 10560 10556 10547 10541 10535 10533 10519
10667 10667 10665 10663 10661 10659 10659 10659 10658 10657 10657 10655 10653 10651 10650 10648 10647 10645 10642 10640 10638 10634 10631 10627 10622 10618 10609 10604 10600 10593 10585 10581 10574 10567 10562 10564 10545 10543 10538 10529 10522 10509 10502 10498 10495
10656 10654 10654 10652 10649 10648 10647 10648 10648 10648 10648 10646 10644 10643 10642 10640 10638 10635 10633 10630 10627 10623 10620 10615 10612 10605 10595 10590 10586 10578 10569 10564 10554 10544 10537 10533 10528 10510 10512 10502 10495 10490 10478 10469 10462
10643 10644 10644 10642 10640 10639 10640 10641 10641 10641 10640 10638 10637 10635 10633 10631 10628 10625 10622 10618 10613 10609 10605 10600 10596 10591 10581 10575 10567 10561 10552 10543 10532 10521 10514 10510 10499 10488 10480 10470 10466 10461 10455 10449 10441